When you browse on this site, cookies collect data to enhance your experience and personalize the content and advertising you see.
Visit our Privacy Policy to learn more. By continuing to use the site, you agree to this use of cookies and data.
  • In Switzerland
  • List of Countries
  • For 7 days
  • Water Temperature
  • Satellite Maps
  • Weather Map
  • Weather Widgets
  • user-avatar
    Login

    Hourly Weather Porto Alegre

    Today, 23 January, Wednesday

    Time Temperature Precipitation Wind Pressure Humidity
    00:00 +25°C° 0 mm 1 mps 758 mmHg 80%
    01:00 +25°C° 0 mm 1 mps 758 mmHg 81%
    02:00 +24°C° 0 mm 1 mps 758 mmHg 81%
    03:00 +24°C° 0 mm 1 mps 757 mmHg 79%
    04:00 +24°C° 0 mm 1 mps 757 mmHg 78%
    05:00 +24°C° 0 mm 1 mps 757 mmHg 77%
    06:00 +24°C° 0 mm 1 mps 757 mmHg 76%
    07:00 +26°C° 0 mm 1 mps 758 mmHg 71%
    08:00 +28°C° 0 mm 1 mps 758 mmHg 67%
    09:00 +30°C° 0 mm 1 mps 758 mmHg 64%
    10:00 +30°C° 0 mm 1 mps 758 mmHg 65%
    11:00 +30°C° 0 mm 1 mps 758 mmHg 67%
    12:00 +30°C° 0 mm 1 mps 758 mmHg 68%
    13:00 +31°C° 0.1 mm 1 mps 758 mmHg 62%
    14:00 +32°C° 0.1 mm 1 mps 758 mmHg 57%
    15:00 +34°C° 0.1 mm 1 mps 758 mmHg 51%
    16:00 +33°C° 0.3 mm 1 mps 757 mmHg 53%
    17:00 +34°C° 0.3 mm 2 mps 757 mmHg 55%
    18:00 +32°C° 0.3 mm 2 mps 757 mmHg 57%
    19:00 +31°C° 0 mm 2 mps 757 mmHg 63%
    20:00 +30°C° 0 mm 2 mps 758 mmHg 69%
    21:00 +28°C° 0 mm 2 mps 758 mmHg 76%
    22:00 +28°C° 0 mm 2 mps 758 mmHg 77%
    23:00 +27°C° 0 mm 1 mps 759 mmHg 79%

    Tomorrow, 24 January, Thursday

    Time Temperature Precipitation Wind Pressure Humidity
    00:00 +27°C° 0 mm 1 mps 759 mmHg 81%
    01:00 +26°C° 0 mm 1 mps 758 mmHg 82%
    02:00 +26°C° 0 mm 1 mps 758 mmHg 84%
    03:00 +25°C° 0 mm 1 mps 758 mmHg 86%
    04:00 +25°C° 0 mm 1 mps 758 mmHg 88%
    05:00 +25°C° 0 mm 1 mps 758 mmHg 90%
    06:00 +24°C° 0 mm 1 mps 758 mmHg 92%
    07:00 +26°C° 0 mm 1 mps 759 mmHg 84%
    08:00 +28°C° 0 mm 1 mps 759 mmHg 76%
    09:00 +30°C° 0 mm 2 mps 760 mmHg 69%
    10:00 +32°C° 0 mm 2 mps 759 mmHg 61%
    11:00 +34°C° 0 mm 2 mps 759 mmHg 54%
    12:00 +36°C° 0 mm 3 mps 759 mmHg 46%
    13:00 +37°C° 0 mm 3 mps 759 mmHg 46%
    14:00 +37°C° 0 mm 4 mps 759 mmHg 45%
    15:00 +37°C° 0 mm 4 mps 758 mmHg 45%
    16:00 +36°C° 0 mm 5 mps 758 mmHg 50%
    17:00 +34°C° 0 mm 5 mps 758 mmHg 55%
    18:00 +33°C° 0 mm 5 mps 758 mmHg 60%
    19:00 +30°C° 0 mm 5 mps 759 mmHg 63%
    20:00 +29°C° 0 mm 5 mps 759 mmHg 67%
    21:00 +28°C° 0 mm 5 mps 760 mmHg 70%
    22:00 +27°C° 0 mm 4 mps 760 mmHg 71%
    23:00 +27°C° 0 mm 4 mps 760 mmHg 73%

    Day after tomorrow, 25 January, Friday

    Time Temperature Precipitation Wind Pressure Humidity
    00:00 +26°C° 0 mm 4 mps 760 mmHg 75%
    01:00 +26°C° 0 mm 3 mps 760 mmHg 77%
    02:00 +25°C° 0 mm 3 mps 760 mmHg 79%
    03:00 +25°C° 0 mm 3 mps 759 mmHg 81%
    04:00 +24°C° 0 mm 3 mps 759 mmHg 82%
    05:00 +24°C° 0 mm 2 mps 759 mmHg 84%
    06:00 +24°C° 0 mm 2 mps 760 mmHg 86%
    07:00 +25°C° 0 mm 2 mps 760 mmHg 78%
    08:00 +27°C° 0 mm 3 mps 760 mmHg 71%
    09:00 +29°C° 0 mm 3 mps 760 mmHg 64%
    10:00 +31°C° 0 mm 3 mps 760 mmHg 57%
    11:00 +33°C° 0 mm 3 mps 760 mmHg 50%
    12:00 +35°C° 0 mm 3 mps 759 mmHg 43%
    13:00 +36°C° 0 mm 4 mps 759 mmHg 42%
    14:00 +37°C° 0 mm 4 mps 758 mmHg 41%
    15:00 +37°C° 0 mm 4 mps 758 mmHg 40%
    16:00 +36°C° 0 mm 5 mps 757 mmHg 46%
    17:00 +35°C° 0 mm 5 mps 757 mmHg 52%
    18:00 +33°C° 0 mm 5 mps 757 mmHg 58%
    19:00 +32°C° 0 mm 5 mps 757 mmHg 62%
    20:00 +29°C° 0 mm 4 mps 758 mmHg 67%
    21:00 +28°C° 0 mm 4 mps 758 mmHg 72%
    22:00 +28°C° 0 mm 3 mps 758 mmHg 73%
    23:00 +27°C° 0 mm 3 mps 758 mmHg 75%

    26 January, Saturday

    Time Temperature Precipitation Wind Pressure Humidity
    00:00 +27°C° 0 mm 2 mps 758 mmHg 76%
    01:00 +26°C° 0 mm 2 mps 758 mmHg 77%
    02:00 +26°C° 0 mm 2 mps 757 mmHg 77%
    03:00 +25°C° 0 mm 2 mps 757 mmHg 78%
    04:00 +25°C° 0 mm 1 mps 757 mmHg 78%
    05:00 +25°C° 0 mm 1 mps 758 mmHg 78%
    06:00 +24°C° 0 mm 1 mps 758 mmHg 78%
    07:00 +26°C° 0 mm 1 mps 758 mmHg 70%
    08:00 +28°C° 0 mm 1 mps 759 mmHg 62%
    09:00 +31°C° 0 mm 2 mps 759 mmHg 53%
    10:00 +33°C° 0 mm 1 mps 759 mmHg 46%
    11:00 +36°C° 0 mm 1 mps 759 mmHg 39%
    12:00 +37°C° 0 mm 0 mps 759 mmHg 32%
    13:00 +40°C° 0 mm 1 mps 758 mmHg 31%
    14:00 +40°C° 0 mm 2 mps 757 mmHg 29%
    15:00 +41°C° 0 mm 2 mps 757 mmHg 27%
    16:00 +39°C° 0 mm 3 mps 756 mmHg 34%
    17:00 +38°C° 0 mm 3 mps 756 mmHg 41%
    18:00 +36°C° 0 mm 4 mps 756 mmHg 48%
    19:00 +35°C° 0 mm 3 mps 757 mmHg 54%
    20:00 +33°C° 0 mm 3 mps 757 mmHg 61%
    21:00 +30°C° 0 mm 2 mps 758 mmHg 67%
    22:00 +30°C° 0 mm 2 mps 758 mmHg 69%
    23:00 +29°C° 0 mm 1 mps 758 mmHg 71%

    27 January, Sunday

    Time Temperature Precipitation Wind Pressure Humidity
    00:00 +28°C° 0 mm 1 mps 758 mmHg 72%
    01:00 +28°C° 0 mm 1 mps 758 mmHg 72%
    02:00 +28°C° 0 mm 1 mps 757 mmHg 72%
    03:00 +27°C° 0 mm 1 mps 757 mmHg 72%
    04:00 +27°C° 0 mm 1 mps 757 mmHg 72%
    05:00 +26°C° 0 mm 1 mps 757 mmHg 72%
    06:00 +25°C° 0 mm 1 mps 758 mmHg 72%
    07:00 +27°C° 0 mm 1 mps 758 mmHg 65%
    08:00 +29°C° 0 mm 1 mps 758 mmHg 57%
    09:00 +31°C° 0 mm 1 mps 759 mmHg 50%
    10:00 +34°C° 0 mm 1 mps 759 mmHg 43%
    11:00 +37°C° 0 mm 1 mps 758 mmHg 37%
    12:00 +40°C° 0 mm 1 mps 758 mmHg 30%
    13:00 +41°C° 0 mm 1 mps 758 mmHg 28%
    14:00 +42°C° 0 mm 1 mps 757 mmHg 26%
    15:00 +43°C° 0 mm 1 mps 757 mmHg 24%
    16:00 +40°C° 0 mm 2 mps 757 mmHg 31%
    17:00 +38°C° 0 mm 3 mps 757 mmHg 38%
    18:00 +36°C° 0 mm 4 mps 756 mmHg 45%
    19:00 +35°C° 0 mm 3 mps 757 mmHg 51%
    20:00 +33°C° 0 mm 3 mps 757 mmHg 58%
    21:00 +31°C° 0 mm 2 mps 758 mmHg 64%
    22:00 +30°C° 0 mm 2 mps 758 mmHg 64%
    23:00 +30°C° 0 mm 2 mps 758 mmHg 64%

    28 January, Monday

    Time Temperature Precipitation Wind Pressure Humidity
    00:00 +29°C° 0 mm 1 mps 758 mmHg 65%
    01:00 +29°C° 0 mm 1 mps 758 mmHg 64%
    02:00 +29°C° 0 mm 1 mps 757 mmHg 63%
    03:00 +28°C° 0 mm 1 mps 757 mmHg 62%
    04:00 +28°C° 0 mm 1 mps 757 mmHg 63%
    05:00 +28°C° 0 mm 1 mps 758 mmHg 63%
    06:00 +27°C° 0 mm 1 mps 758 mmHg 64%
    07:00 +29°C° 0 mm 2 mps 758 mmHg 60%
    08:00 +31°C° 0 mm 2 mps 759 mmHg 55%
    09:00 +34°C° 0 mm 3 mps 759 mmHg 51%
    10:00 +36°C° 0 mm 3 mps 759 mmHg 44%
    11:00 +38°C° 0 mm 3 mps 759 mmHg 38%
    12:00 +39°C° 0 mm 3 mps 759 mmHg 31%
    13:00 +40°C° 0 mm 3 mps 758 mmHg 30%
    14:00 +41°C° 0 mm 2 mps 758 mmHg 29%
    15:00 +41°C° 0 mm 2 mps 757 mmHg 27%
    16:00 +40°C° 0 mm 2 mps 757 mmHg 32%
    17:00 +38°C° 0 mm 2 mps 757 mmHg 37%
    18:00 +37°C° 0 mm 2 mps 757 mmHg 42%
    19:00 +36°C° 0 mm 2 mps 757 mmHg 45%
    20:00 +34°C° 0 mm 2 mps 758 mmHg 49%
    21:00 +32°C° 0 mm 2 mps 758 mmHg 52%
    22:00 +31°C° 0 mm 2 mps 758 mmHg 55%
    23:00 +30°C° 0 mm 1 mps 758 mmHg 57%
    Show more